Home   Weather   Chattanooga   Past weeks

Flag for USA Past Weather in Chattanooga, Tennessee, USA — Yesterday and Last 2 Weeks

Now
59 °F

Fog.


Feels Like: 56 °F
Forecast: 47 / 56 °F
Wind: 16 mph from North

Location: Lovell Field

Current Time: Jan 22, 2017 at 7:56:00 pm

Latest Report: Jan 22, 2017 at 6:53 pm


Visibility: 3 mi

Pressure: 29.14 "Hg

Humidity: 93%

Dew Point: 57 °F

Location of ChattanoogaLocation

Past Weather in Chattanooga — Graph

°F

Chattanooga Temperature Yesterday

Maximum temperature yesterday: 65 °F (at 3:53 pm)
Minimum temperature yesterday: 51 °F (at 4:53 am)
Average temperature yesterday: 57 °F

High & Low Weather Summary for the Past Weeks

 TemperatureHumidityPressure
High73 °F (Jan 14, 1:53 pm)100% (Jan 14, 7:53 am)30.81 "Hg (Jan 14, 7:53 am)
Low14 °F (Jan 8, 7:53 am)24% (Jan 9, 2:53 pm)29.18 "Hg (Jan 22, 5:53 pm)
Average54 °F75%30.17 "Hg
* Reported Jan 7 5:53 pm — Jan 22 5:53 pm, Chattanooga, Weather by CustomWeather, © 2017

Note: Actual official high and low records may vary slightly from our data, if they occured in-between our weather recording intervals... More about our weather records

Advertising

Chattanooga Weather History for the Previous 24 Hours

Scroll right to see more
 ConditionsComfort  
Time TempWeatherWind HumidityBarometerVisibility
5:53 pm
Sun, Jan 22
60 °FLight rain. Mostly cloudy.10 mph86%29.18 "Hg9 mi
5:32 pm60 °FHeavy rain. Fog.16 mph86%29.19 "Hg1 mi
4:53 pm61 °FLight rain. More clouds than sun.9 mph83%29.23 "Hg9 mi
3:53 pm63 °FCloudy.5 mph73%29.26 "Hg10 mi
2:53 pm63 °FCloudy.6 mph73%29.31 "Hg10 mi
1:53 pm64 °FPartly sunny.10 mph70%29.31 "Hg10 mi
1:03 pm64 °FBroken clouds.7 mph73%29.38 "Hg10 mi
11:53 am62 °FBroken clouds.9 mph75%29.46 "Hg10 mi
10:53 am62 °FBroken clouds.7 mph78%29.50 "Hg10 mi
9:53 am62 °FBroken clouds.12 mph78%29.49 "Hg10 mi
8:53 am59 °FBroken clouds.8 mph87%29.50 "Hg10 mi
7:53 am58 °FBroken clouds.8 mph87%29.49 "Hg10 mi
7:16 am59 °FPartly cloudy.13 mph84%29.49 "Hg10 mi
6:53 am59 °FPartly cloudy.9 mph84%29.46 "Hg7 mi
5:57 am58 °FMostly cloudy.12 mph87%29.46 "Hg7 mi
5:30 am58 °FMostly cloudy.7 mph87%29.46 "Hg10 mi
4:53 am57 °FMostly cloudy.8 mph93%29.48 "Hg10 mi
4:08 am58 °FLight rain. Overcast.14 mph87%29.54 "Hg9 mi
3:41 am56 °FStrong thunderstorms. Fog.3 mph93%29.56 "Hg2 mi
3:25 am55 °FPassing clouds.No wind90%29.58 "Hg10 mi
2:53 am54 °FPassing clouds.No wind93%29.55 "Hg10 mi
1:53 am53 °FClear.5 mph93%29.54 "Hg10 mi
1:05 am55 °FPassing clouds.5 mph90%29.60 "Hg10 mi
12:32 am55 °FPassing clouds.No wind90%29.62 "Hg10 mi
11:53 pm
Sat, Jan 21
56 °FPassing clouds.3 mph87%29.62 "Hg10 mi
10:53 pm58 °FPartly cloudy.3 mph84%29.65 "Hg10 mi
9:53 pm58 °FPartly cloudy.No wind84%29.65 "Hg10 mi
8:53 pm58 °FPartly cloudy.No wind84%29.64 "Hg10 mi
7:53 pm59 °FPartly cloudy.No wind81%29.66 "Hg10 mi
Weather by CustomWeather, © 2017

See weather overviewHow to use our weather pages